Location: ?
(35.4064°N, 139.3593°E)
Time: 14:54:31
(UTC+00:00)

Cosmos 2297 Rocket - Pass Details

Date: 18 April 2024
Orbit: 841 x 841 km, 71.0° (Epoch: 18 May)

Event Time Altitude Azimuth Distance (km) Brightness Sun altitude
Rises 12:04:50 0° 339° (NNW) 3,400 6.3 -30.5°
Reaches altitude 10° 12:07:17 10° 339° (NNW) 2,462 5.4 -30.9°
Enters shadow 12:11:44 57° 344° (NNW) 984 2.6 -31.5°
